STARLINK-34251 (64205 NORAD) Tracking and Keplerian Element Data

This shows tracking and keplerian element data for the satellite.

Feedback or suggestion? Click here.




ElementValue
Catalog64205
NameSTARLINK-34251
Epoch Orbit3219
Epoch Day353.16390848
Epoch Year2025
RAAN53.8664
Inclination53.1601
Eccentricity0.0001218
Argument of Perigee36.099
Mean Anonmoly324.0093
Mean Motion15.30234922
Decay Rate0.00027433
L11 64205U 25117C 25353.16390848 .00027433 00000+0 93392-3 0 9997
L22 64205 53.1601 53.8664 0001218 36.0990 324.0093 15.30234922 32193



Live tracking and technical data element details for STARLINK-34251 (NORAD 64205). STARLINK-34251 can be tracked NOW for your location showing map with azimuth and elevation plus other details from your city location.







IsCatalogInMostPopularTable: catalog: 64205, numindb: 4
Update: records affected: 1



GetName: 64205 STARLINK-34251

Hit Count: updated at: Sun, 08 Feb 2026 08:54:51 GMT